| time (UTC) | temp C | wind direction | speed KPH | gust KPH | rain 1hr cm | rain 24hr cm | rain mn cm | humidity % | barometer mb |
| 20260902065315 | 16 | 281 | 3.2 | 11.3 | 0.00 | 0.10 | 0.00 | 89 | 1019.9 |
| 20260902064817 | 16 | 282 | 6.4 | 11.3 | 0.00 | 0.10 | 0.00 | 89 | 1020.0 |
| 20260902064320 | 16 | 274 | 4.8 | 12.9 | 0.00 | 0.10 | 0.00 | 90 | 1019.9 |
| 20260902063822 | 15 | 248 | 6.4 | 12.9 | 0.00 | 0.10 | 0.00 | 90 | 1019.9 |
| 20260902063326 | 15 | 292 | 4.8 | 8.0 | 0.00 | 0.10 | 0.00 | 91 | 1020.0 |
| 20260902062829 | 15 | 278 | 4.8 | 9.7 | 0.00 | 0.10 | 0.00 | 91 | 1020.0 |
| 20260902062313 | 15 | 264 | 3.2 | 11.3 | 0.00 | 0.10 | 0.00 | 92 | 1020.0 |
| 20260902061815 | 15 | 276 | 4.8 | 11.3 | 0.00 | 0.10 | 0.00 | 92 | 1020.1 |
| 20260902061316 | 15 | 267 | 4.8 | 11.3 | 0.00 | 0.10 | 0.00 | 93 | 1020.1 |
| 20260902060821 | 14 | 266 | 6.4 | 11.3 | 0.00 | 0.10 | 0.00 | 92 | 1020.1 |
| 20260902060323 | 15 | 274 | 6.4 | 9.7 | 0.00 | 0.10 | 0.00 | 93 | 1020.1 |
| 20260902055845 | 14 | 263 | 4.8 | 11.3 | 0.00 | 0.10 | 0.00 | 93 | 1020.2 |
| 20260902055325 | 14 | 278 | 3.2 | 12.9 | 0.00 | 0.10 | 0.00 | 94 | 1020.2 |
| 20260902054829 | 14 | 275 | 6.4 | 12.9 | 0.00 | 0.10 | 0.00 | 94 | 1020.2 |
| 20260902054329 | 14 | 218 | 6.4 | 11.3 | 0.00 | 0.10 | 0.00 | 94 | 1020.1 |
| 20260902053832 | 14 | 265 | 4.8 | 12.9 | 0.00 | 0.10 | 0.00 | 93 | 1020.1 |
| 20260902053331 | 14 | 224 | 6.4 | 12.9 | 0.00 | 0.10 | 0.00 | 93 | 1020.1 |
| 20260902052851 | 14 | 276 | 6.4 | 9.7 | 0.00 | 0.10 | 0.00 | 94 | 1020.0 |
| 20260902052331 | 14 | 267 | 3.2 | 9.7 | 0.00 | 0.10 | 0.00 | 94 | 1020.0 |
| 20260902051852 | 14 | 273 | 4.8 | 9.7 | 0.00 | 0.10 | 0.00 | 94 | 1019.9 |
| 20260902051332 | 14 | 283 | 4.8 | 9.7 | 0.00 | 0.10 | 0.00 | 94 | 1019.8 |
| 20260902050832 | 13 | 271 | 4.8 | 8.0 | 0.00 | 0.10 | 0.00 | 95 | 1019.7 |
| 20260902050332 | 13 | 248 | 4.8 | 6.4 | 0.00 | 0.10 | 0.00 | 95 | 1019.6 |
| 20260902045852 | 13 | 261 | 3.2 | 6.4 | 0.00 | 0.10 | 0.00 | 95 | 1019.6 |
| 20260902045349 | 13 | 257 | 3.2 | 4.8 | 0.00 | 0.10 | 0.00 | 95 | 1019.5 |
| 20260902044829 | 13 | 260 | 1.6 | 4.8 | 0.00 | 0.10 | 0.00 | 95 | 1019.4 |
| 20260902044350 | 13 | 257 | 1.6 | 6.4 | 0.00 | 0.10 | 0.00 | 95 | 1019.4 |
| 20260902043812 | 13 | 262 | 3.2 | 4.8 | 0.00 | 0.10 | 0.00 | 95 | 1019.3 |
| 20260902043331 | 13 | 270 | 1.6 | 3.2 | 0.00 | 0.10 | 0.00 | 94 | 1019.2 |
| 20260902042830 | 13 | 270 | 0.0 | 4.8 | 0.00 | 0.10 | 0.00 | 94 | 1019.2 |
| 20260902042334 | 13 | 265 | 1.6 | 4.8 | 0.00 | 0.10 | 0.00 | 94 | 1019.1 |
| 20260902041815 | 13 | 262 | 1.6 | 4.8 | 0.00 | 0.10 | 0.00 | 94 | 1019.1 |
| 20260902041318 | 13 | 262 | 1.6 | 4.8 | 0.00 | 0.10 | 0.00 | 94 | 1019.1 |
| 20260902040821 | 13 | 264 | 1.6 | 4.8 | 0.00 | 0.10 | 0.00 | 94 | 1019.1 |
| 20260902040323 | 13 | 261 | 1.6 | 4.8 | 0.00 | 0.10 | 0.00 | 93 | 1019.1 |
| 20260902035825 | 13 | 265 | 1.6 | 4.8 | 0.00 | 0.10 | 0.00 | 93 | 1019.0 |
| 20260902035345 | 13 | 261 | 1.6 | 4.8 | 0.00 | 0.10 | 0.00 | 93 | 1019.0 |
| 20260902034824 | 14 | 262 | 1.6 | 4.8 | 0.00 | 0.10 | 0.00 | 93 | 1019.0 |
| 20260902034324 | 14 | 263 | 1.6 | 6.4 | 0.00 | 0.10 | 0.00 | 93 | 1019.1 |
| 20260902033825 | 14 | 262 | 3.2 | 6.4 | 0.00 | 0.10 | 0.00 | 93 | 1019.1 |
| 20260902033328 | 14 | 265 | 3.2 | 8.0 | 0.00 | 0.10 | 0.00 | 93 | 1019.1 |
| 20260902032851 | 14 | 255 | 3.2 | 8.0 | 0.00 | 0.10 | 0.00 | 93 | 1019.0 |
| 20260902032312 | 14 | 269 | 3.2 | 4.8 | 0.00 | 0.10 | 0.00 | 93 | 1019.0 |
| 20260902031835 | 14 | 276 | 3.2 | 4.8 | 0.00 | 0.10 | 0.00 | 92 | 1019.0 |
| 20260902031314 | 14 | 264 | 1.6 | 3.2 | 0.00 | 0.10 | 0.00 | 92 | 1018.9 |
| 20260902030816 | 14 | 262 | 1.6 | 3.2 | 0.00 | 0.10 | 0.00 | 92 | 1018.9 |
| 20260902030317 | 14 | 269 | 1.6 | 4.8 | 0.00 | 0.10 | 0.00 | 92 | 1018.9 |
| 20260902025819 | 15 | 264 | 1.6 | 4.8 | 0.00 | 0.10 | 0.00 | 92 | 1018.9 |
| 20260902025321 | 15 | 264 | 1.6 | 4.8 | 0.00 | 0.10 | 0.00 | 92 | 1019.0 |
| 20260902024822 | 15 | 262 | 1.6 | 4.8 | 0.00 | 0.10 | 0.00 | 91 | 1019.0 |
| 20260902024325 | 15 | 276 | 3.2 | 4.8 | 0.00 | 0.10 | 0.00 | 91 | 1019.0 |
| 20260902023828 | 15 | 269 | 1.6 | 6.4 | 0.00 | 0.10 | 0.00 | 91 | 1019.0 |
| 20260902023331 | 15 | 261 | 3.2 | 6.4 | 0.00 | 0.10 | 0.00 | 91 | 1019.2 |
| 20260902022837 | 15 | 250 | 3.2 | 6.4 | 0.00 | 0.10 | 0.00 | 91 | 1019.1 |
| 20260902022319 | 15 | 271 | 1.6 | 6.4 | 0.00 | 0.10 | 0.00 | 90 | 1019.1 |
| 20260902021820 | 15 | 269 | 3.2 | 6.4 | 0.00 | 0.10 | 0.00 | 90 | 1019.1 |
| 20260902021342 | 15 | 272 | 3.2 | 6.4 | 0.00 | 0.10 | 0.00 | 90 | 1019.1 |
| 20260902020842 | 15 | 267 | 3.2 | 6.4 | 0.00 | 0.10 | 0.00 | 90 | 1019.0 |
| 20260902020322 | 15 | 273 | 3.2 | 6.4 | 0.00 | 0.10 | 0.00 | 89 | 1019.1 |
| 20260902015843 | 15 | 266 | 3.2 | 6.4 | 0.00 | 0.10 | 0.00 | 89 | 1019.1 |
| 20260902015323 | 15 | 271 | 3.2 | 8.0 | 0.00 | 0.10 | 0.00 | 89 | 1019.1 |
| 20260902014844 | 16 | 263 | 4.8 | 8.0 | 0.00 | 0.10 | 0.00 | 88 | 1019.1 |
| 20260902014342 | 16 | 264 | 4.8 | 8.0 | 0.00 | 0.10 | 0.00 | 88 | 1019.1 |
| 20260902013814 | 16 | 268 | 3.2 | 8.0 | 0.00 | 0.10 | 0.00 | 88 | 1019.1 |
| 20260902013313 | 16 | 272 | 6.4 | 8.0 | 0.00 | 0.10 | 0.00 | 88 | 1019.1 |
| 20260902012813 | 16 | 267 | 4.8 | 11.3 | 0.00 | 0.10 | 0.00 | 88 | 1019.1 |
| 20260902012313 | 16 | 271 | 3.2 | 11.3 | 0.00 | 0.10 | 0.00 | 87 | 1019.0 |
| 20260902011813 | 16 | 271 | 4.8 | 8.0 | 0.00 | 0.10 | 0.00 | 87 | 1019.0 |
| 20260902011314 | 16 | 243 | 4.8 | 8.0 | 0.00 | 0.10 | 0.00 | 87 | 1019.0 |
| 20260902010813 | 16 | 255 | 3.2 | 8.0 | 0.00 | 0.10 | 0.00 | 87 | 1019.0 |
| 20260902010313 | 16 | 263 | 4.8 | 8.0 | 0.00 | 0.10 | 0.00 | 87 | 1019.0 |
| 20260902005814 | 16 | 272 | 3.2 | 8.0 | 0.00 | 0.10 | 0.00 | 87 | 1018.9 |
| 20260902005336 | 16 | 256 | 3.2 | 6.4 | 0.00 | 0.10 | 0.00 | 87 | 1018.9 |
| 20260902004816 | 16 | 243 | 1.6 | 8.0 | 0.00 | 0.10 | 0.00 | 87 | 1018.9 |
| 20260902004336 | 16 | 248 | 1.6 | 8.0 | 0.00 | 0.10 | 0.00 | 87 | 1018.9 |
| 20260902003817 | 16 | 275 | 3.2 | 6.4 | 0.00 | 0.10 | 0.00 | 87 | 1018.9 |
| 20260902003320 | 16 | 267 | 1.6 | 8.0 | 0.00 | 0.10 | 0.00 | 87 | 1018.9 |
| 20260902002823 | 16 | 259 | 3.2 | 8.0 | 0.00 | 0.10 | 0.00 | 87 | 1018.9 |
| 20260902002326 | 16 | 266 | 4.8 | 8.0 | 0.00 | 0.10 | 0.00 | 86 | 1019.0 |
| 20260902001829 | 16 | 266 | 3.2 | 8.0 | 0.00 | 0.10 | 0.00 | 87 | 1018.9 |
| 20260902001332 | 16 | 262 | 3.2 | 6.4 | 0.00 | 0.10 | 0.00 | 86 | 1018.9 |
| 20260902000814 | 16 | 264 | 3.2 | 8.0 | 0.00 | 0.10 | 0.00 | 86 | 1018.9 |
| 20260902000316 | 16 | 262 | 3.2 | 8.0 | 0.00 | 0.10 | 0.00 | 86 | 1019.0 |
| 20260901235819 | 16 | 246 | 3.2 | 8.0 | 0.00 | 0.10 | 0.00 | 86 | 1019.0 |
| 20260901235321 | 16 | 267 | 4.8 | 9.7 | 0.00 | 0.10 | 0.00 | 86 | 1018.9 |
| 20260901234824 | 16 | 260 | 3.2 | 9.7 | 0.00 | 0.10 | 0.00 | 86 | 1018.9 |
| 20260901234326 | 16 | 242 | 3.2 | 8.0 | 0.00 | 0.10 | 0.00 | 86 | 1018.9 |
| 20260901233915 | 16 | 262 | 3.2 | 8.0 | 0.00 | 0.10 | 0.00 | 86 | 1018.9 |
| 20260901233353 | 16 | 271 | 3.2 | 6.4 | 0.00 | 0.10 | 0.00 | 86 | 1018.9 |
| 20260901232813 | 16 | 267 | 3.2 | 6.4 | 0.00 | 0.10 | 0.00 | 86 | 1018.9 |
| 20260901232315 | 16 | 262 | 3.2 | 8.0 | 0.00 | 0.10 | 0.00 | 86 | 1018.9 |
| 20260901231327 | 16 | 209 | 4.8 | 11.3 | 0.00 | 0.10 | 0.00 | 86 | 1019.0 |
| 20260901230830 | 16 | 258 | 6.4 | 11.3 | 0.00 | 0.10 | 0.00 | 86 | 1018.9 |
| 20260901230331 | 16 | 259 | 4.8 | 9.7 | 0.00 | 0.10 | 0.00 | 86 | 1018.8 |
| 20260901225814 | 16 | 268 | 4.8 | 9.7 | 0.00 | 0.10 | 0.00 | 86 | 1018.8 |
| 20260901225317 | 16 | 261 | 4.8 | 9.7 | 0.00 | 0.10 | 0.00 | 86 | 1018.7 |
| 20260901224840 | 16 | 260 | 4.8 | 9.7 | 0.00 | 0.10 | 0.00 | 87 | 1018.7 |
| 20260901224322 | 16 | 264 | 4.8 | 9.7 | 0.00 | 0.10 | 0.00 | 87 | 1018.7 |
| 20260901223826 | 16 | 264 | 1.6 | 6.4 | 0.00 | 0.10 | 0.00 | 87 | 1018.7 |
| 20260901223327 | 16 | 271 | 3.2 | 6.4 | 0.00 | 0.10 | 0.00 | 88 | 1018.6 |
| 20260901222828 | 16 | 267 | 3.2 | 9.7 | 0.00 | 0.10 | 0.00 | 88 | 1018.6 |
| 20260901222327 | 16 | 274 | 4.8 | 9.7 | 0.00 | 0.10 | 0.00 | 88 | 1018.5 |
| 20260901221827 | 16 | 262 | 4.8 | 9.7 | 0.00 | 0.10 | 0.00 | 89 | 1018.5 |
| 20260901221348 | 16 | 259 | 4.8 | 6.4 | 0.00 | 0.10 | 0.00 | 90 | 1018.5 |
| 20260901220827 | 16 | 264 | 1.6 | 6.4 | 0.00 | 0.10 | 0.00 | 91 | 1018.5 |
| 20260901220327 | 16 | 271 | 1.6 | 4.8 | 0.00 | 0.10 | 0.00 | 91 | 1018.5 |
| 20260901215828 | 16 | 262 | 0.0 | 0.0 | 0.00 | 0.10 | 0.03 | 91 | 1018.5 |
| 20260901215326 | 16 | 262 | 0.0 | 0.0 | 0.00 | 0.10 | 0.03 | 91 | 1018.5 |
| 20260901214848 | 16 | 263 | 0.0 | 0.0 | 0.00 | 0.10 | 0.03 | 91 | 1018.4 |
| 20260901214330 | 16 | 268 | 0.0 | 0.0 | 0.00 | 0.10 | 0.03 | 91 | 1018.4 |
| 20260901213814 | 16 | 268 | 0.0 | 0.0 | 0.00 | 0.10 | 0.03 | 90 | 1018.4 |
| 20260901213316 | 16 | 268 | 0.0 | 0.0 | 0.00 | 0.10 | 0.03 | 90 | 1018.5 |
| 20260901212819 | 16 | 268 | 0.0 | 0.0 | 0.00 | 0.10 | 0.03 | 89 | 1018.5 |
| 20260901212322 | 16 | 268 | 0.0 | 0.0 | 0.00 | 0.10 | 0.03 | 89 | 1018.4 |
| 20260901211825 | 17 | 268 | 0.0 | 0.0 | 0.00 | 0.10 | 0.03 | 89 | 1018.3 |
| 20260901211329 | 17 | 268 | 0.0 | 3.2 | 0.00 | 0.10 | 0.03 | 88 | 1018.4 |
| 20260901210814 | 17 | 268 | 0.0 | 4.8 | 0.00 | 0.10 | 0.03 | 88 | 1018.5 |
| 20260901210336 | 17 | 269 | 3.2 | 4.8 | 0.00 | 0.10 | 0.03 | 88 | 1018.4 |
| 20260901205820 | 17 | 264 | 1.6 | 3.2 | 0.00 | 0.10 | 0.03 | 88 | 1018.5 |
| 20260901205323 | 17 | 264 | 0.0 | 4.8 | 0.00 | 0.10 | 0.03 | 87 | 1018.4 |
| 20260901204828 | 17 | 264 | 1.6 | 4.8 | 0.00 | 0.10 | 0.03 | 87 | 1018.4 |
| 20260901204331 | 17 | 267 | 3.2 | 4.8 | 0.00 | 0.10 | 0.03 | 86 | 1018.4 |
| 20260901203815 | 17 | 264 | 3.2 | 6.4 | 0.00 | 0.10 | 0.03 | 86 | 1018.4 |
| 20260901203317 | 17 | 283 | 3.2 | 8.0 | 0.00 | 0.10 | 0.03 | 86 | 1018.3 |
| 20260901202815 | 17 | 277 | 4.8 | 8.0 | 0.00 | 0.10 | 0.03 | 85 | 1018.3 |
| 20260901202335 | 17 | 271 | 3.2 | 9.7 | 0.00 | 0.10 | 0.03 | 86 | 1018.2 |
| 20260901201834 | 17 | 272 | 4.8 | 9.7 | 0.00 | 0.10 | 0.03 | 86 | 1018.3 |
| 20260901201313 | 17 | 278 | 3.2 | 9.7 | 0.00 | 0.10 | 0.03 | 87 | 1018.3 |
| 20260901200814 | 17 | 277 | 4.8 | 6.4 | 0.00 | 0.10 | 0.03 | 87 | 1018.3 |
| 20260901200334 | 17 | 271 | 1.6 | 8.0 | 0.00 | 0.10 | 0.03 | 88 | 1018.2 |
| 20260901195814 | 17 | 263 | 3.2 | 8.0 | 0.00 | 0.10 | 0.03 | 88 | 1018.2 |
| 20260901195316 | 17 | 265 | 1.6 | 6.4 | 0.00 | 0.10 | 0.03 | 88 | 1018.2 |
| 20260901194815 | 17 | 250 | 3.2 | 6.4 | 0.00 | 0.10 | 0.03 | 89 | 1018.2 |
| 20260901194314 | 17 | 236 | 3.2 | 6.4 | 0.00 | 0.10 | 0.03 | 90 | 1018.1 |
| 20260901193835 | 16 | 250 | 1.6 | 4.8 | 0.00 | 0.10 | 0.03 | 91 | 1018.1 |
| 20260901193313 | 16 | 248 | 0.0 | 3.2 | 0.00 | 0.10 | 0.03 | 91 | 1018.1 |
| 20260901192834 | 16 | 260 | 0.0 | 4.8 | 0.00 | 0.10 | 0.03 | 91 | 1018.0 |
| 20260901192315 | 16 | 260 | 1.6 | 4.8 | 0.00 | 0.10 | 0.03 | 91 | 1018.1 |
| 20260901191816 | 16 | 238 | 1.6 | 3.2 | 0.00 | 0.10 | 0.03 | 91 | 1017.9 |
| 20260901191318 | 16 | 238 | 0.0 | 3.2 | 0.00 | 0.10 | 0.03 | 91 | 1017.9 |
| 20260901190821 | 16 | 228 | 1.6 | 3.2 | 0.00 | 0.10 | 0.03 | 91 | 1018.0 |
| 20260901190323 | 16 | 224 | 0.0 | 4.8 | 0.00 | 0.10 | 0.03 | 91 | 1018.0 |
| 20260901185825 | 16 | 224 | 1.6 | 4.8 | 0.00 | 0.10 | 0.03 | 91 | 1017.9 |
| 20260901185330 | 16 | 224 | 0.0 | 0.0 | 0.00 | 0.10 | 0.03 | 91 | 1017.9 |
| 20260901184828 | 16 | 222 | 0.0 | 0.0 | 0.00 | 0.10 | 0.03 | 92 | 1017.9 |
| 20260901184315 | 16 | 214 | 0.0 | 0.0 | 0.00 | 0.10 | 0.03 | 92 | 1017.8 |
| 20260901183814 | 16 | 211 | 0.0 | 0.0 | 0.00 | 0.10 | 0.03 | 92 | 1017.7 |
| 20260901183318 | 16 | 212 | 0.0 | 0.0 | 0.00 | 0.10 | 0.03 | 92 | 1017.6 |
| 20260901182819 | 16 | 212 | 0.0 | 0.0 | 0.00 | 0.10 | 0.03 | 92 | 1017.6 |
| 20260901182342 | 16 | 212 | 0.0 | 0.0 | 0.00 | 0.10 | 0.03 | 92 | 1017.7 |
| 20260901181822 | 16 | 146 | 0.0 | 0.0 | 0.00 | 0.10 | 0.03 | 92 | 1017.6 |
| 20260901181326 | 16 | 146 | 0.0 | 0.0 | 0.00 | 0.10 | 0.03 | 92 | 1017.5 |
| 20260901180828 | 16 | 146 | 0.0 | 0.0 | 0.00 | 0.10 | 0.03 | 91 | 1017.4 |
| 20260901180331 | 17 | 129 | 0.0 | 0.0 | 0.00 | 0.10 | 0.03 | 91 | 1017.4 |
| 20260901175831 | 17 | 129 | 0.0 | 0.0 | 0.00 | 0.10 | 0.03 | 91 | 1017.4 |
| 20260901175352 | 17 | 129 | 0.0 | 0.0 | 0.00 | 0.10 | 0.03 | 90 | 1017.3 |
| 20260901174814 | 17 | 129 | 0.0 | 0.0 | 0.00 | 0.10 | 0.03 | 90 | 1017.3 |
| 20260901174316 | 17 | 129 | 0.0 | 0.0 | 0.00 | 0.10 | 0.03 | 89 | 1017.2 |
| 20260901173822 | 17 | 129 | 0.0 | 0.0 | 0.00 | 0.10 | 0.03 | 89 | 1017.2 |
| 20260901173325 | 17 | 129 | 0.0 | 0.0 | 0.00 | 0.10 | 0.03 | 89 | 1017.2 |
| 20260901172848 | 17 | 129 | 0.0 | 0.0 | 0.00 | 0.10 | 0.03 | 89 | 1017.2 |
| 20260901172348 | 17 | 143 | 0.0 | 1.6 | 0.00 | 0.10 | 0.03 | 89 | 1017.3 |
| 20260901171827 | 17 | 143 | 0.0 | 1.6 | 0.00 | 0.10 | 0.03 | 89 | 1017.4 |
| 20260901171328 | 17 | 144 | 0.0 | 0.0 | 0.00 | 0.10 | 0.03 | 89 | 1017.4 |
| 20260901170829 | 17 | 143 | 0.0 | 1.6 | 0.00 | 0.10 | 0.03 | 89 | 1017.4 |
| 20260901170331 | 17 | 143 | 0.0 | 1.6 | 0.10 | 0.10 | 0.03 | 89 | 1017.4 |
| 20260901165814 | 17 | 135 | 0.0 | 3.2 | 0.10 | 0.10 | 0.03 | 89 | 1017.3 |
| 20260901165316 | 17 | 134 | 0.0 | 4.8 | 0.10 | 0.10 | 0.03 | 89 | 1017.3 |
| 20260901164817 | 17 | 133 | 1.6 | 4.8 | 0.10 | 0.10 | 0.03 | 88 | 1017.2 |
| 20260901164318 | 17 | 128 | 0.0 | 1.6 | 0.10 | 0.10 | 0.03 | 88 | 1017.2 |
| 20260901163819 | 17 | 101 | 0.0 | 4.8 | 0.10 | 0.10 | 0.03 | 87 | 1017.3 |
| 20260901163335 | 18 | 68 | 1.6 | 4.8 | 0.10 | 0.10 | 0.03 | 86 | 1017.3 |
| 20260901162817 | 18 | 120 | 1.6 | 3.2 | 0.10 | 0.10 | 0.03 | 86 | 1017.3 |
| 20260901162319 | 18 | 349 | 0.0 | 1.6 | 0.10 | 0.10 | 0.03 | 86 | 1017.3 |
| 20260901161819 | 18 | 349 | 0.0 | 3.2 | 0.10 | 0.10 | 0.03 | 86 | 1017.3 |
| 20260901161320 | 18 | 349 | 0.0 | 4.8 | 0.10 | 0.10 | 0.03 | 88 | 1017.3 |
| 20260901160819 | 18 | 241 | 1.6 | 4.8 | 0.10 | 0.10 | 0.03 | 86 | 1017.4 |
| 20260901160339 | 17 | 263 | 0.0 | 8.0 | 0.00 | 0.00 | 0.00 | 86 | 1017.4 |
| 20260901155840 | 18 | 25 | 1.6 | 14.5 | 0.00 | 0.00 | 0.00 | 85 | 1017.4 |
| 20260901155322 | 18 | 39 | 4.8 | 17.7 | 0.00 | 0.00 | 0.00 | 82 | 1017.3 |
| 20260901154824 | 19 | 38 | 8.0 | 37.0 | 0.00 | 0.00 | 0.00 | 78 | 1017.3 |
| 20260901154327 | 20 | 51 | 16.1 | 37.0 | 0.00 | 0.00 | 0.00 | 74 | 1017.4 |
| 20260901153830 | 21 | 329 | 3.2 | 16.1 | 0.00 | 0.00 | 0.00 | 67 | 1017.2 |
| 20260901153332 | 21 | 257 | 6.4 | 17.7 | 0.00 | 0.00 | 0.00 | 67 | 1017.1 |
| 20260901152815 | 21 | 291 | 6.4 | 24.1 | 0.00 | 0.00 | 0.00 | 69 | 1017.0 |
| 20260901152317 | 21 | 248 | 8.0 | 22.5 | 0.00 | 0.00 | 0.00 | 68 | 1017.0 |
| 20260901151820 | 21 | 245 | 6.4 | 12.9 | 0.00 | 0.00 | 0.00 | 67 | 1016.9 |
| 20260901151322 | 21 | 267 | 3.2 | 11.3 | 0.00 | 0.00 | 0.00 | 67 | 1016.9 |
| 20260901150823 | 21 | 276 | 6.4 | 12.9 | 0.00 | 0.00 | 0.00 | 67 | 1016.9 |
| 20260901150326 | 21 | 257 | 4.8 | 12.9 | 0.00 | 0.00 | 0.00 | 67 | 1017.0 |
| 20260901145848 | 22 | 269 | 4.8 | 17.7 | 0.00 | 0.00 | 0.00 | 67 | 1017.1 |
| 20260901145330 | 22 | 271 | 4.8 | 14.5 | 0.00 | 0.00 | 0.00 | 64 | 1017.1 |
| 20260901144812 | 22 | 281 | 4.8 | 14.5 | 0.00 | 0.00 | 0.00 | 63 | 1017.0 |
| 20260901144334 | 22 | 264 | 3.2 | 14.5 | 0.00 | 0.00 | 0.00 | 63 | 1017.0 |
| 20260901143816 | 22 | 269 | 6.4 | 11.3 | 0.00 | 0.00 | 0.00 | 64 | 1017.0 |
| 20260901143318 | 22 | 245 | 3.2 | 8.0 | 0.00 | 0.00 | 0.00 | 63 | 1017.1 |
| 20260901142820 | 22 | 267 | 1.6 | 14.5 | 0.00 | 0.00 | 0.00 | 64 | 1017.0 |
| 20260901142325 | 22 | 238 | 6.4 | 17.7 | 0.00 | 0.00 | 0.00 | 62 | 1017.1 |
| 20260901141849 | 22 | 262 | 8.0 | 19.3 | 0.00 | 0.00 | 0.00 | 61 | 1017.1 |
| 20260901141332 | 23 | 276 | 6.4 | 19.3 | 0.00 | 0.00 | 0.00 | 63 | 1017.1 |
| 20260901140814 | 23 | 328 | 4.8 | 11.3 | 0.00 | 0.00 | 0.00 | 64 | 1017.2 |
| 20260901140314 | 22 | 334 | 4.8 | 9.7 | 0.00 | 0.00 | 0.00 | 65 | 1017.2 |
| 20260901135814 | 22 | 262 | 3.2 | 8.0 | 0.00 | 0.00 | 0.00 | 66 | 1017.2 |
| 20260901135317 | 22 | 269 | 3.2 | 8.0 | 0.00 | 0.00 | 0.00 | 67 | 1017.3 |
| 20260901134819 | 22 | 267 | 1.6 | 17.7 | 0.00 | 0.00 | 0.00 | 68 | 1017.3 |
| 20260901134321 | 22 | 270 | 6.4 | 17.7 | 0.00 | 0.00 | 0.00 | 67 | 1017.4 |
| 20260901133821 | 21 | 257 | 4.8 | 12.9 | 0.00 | 0.00 | 0.00 | 67 | 1017.4 |
| 20260901133321 | 21 | 263 | 6.4 | 19.3 | 0.00 | 0.00 | 0.00 | 68 | 1017.4 |
| 20260901132821 | 21 | 261 | 8.0 | 19.3 | 0.00 | 0.00 | 0.00 | 67 | 1017.4 |
| 20260901132342 | 22 | 269 | 4.8 | 11.3 | 0.00 | 0.00 | 0.00 | 67 | 1017.5 |
| 20260901131842 | 21 | 210 | 4.8 | 12.9 | 0.00 | 0.00 | 0.00 | 68 | 1017.5 |
| 20260901131326 | 21 | 257 | 8.0 | 17.7 | 0.00 | 0.00 | 0.00 | 68 | 1017.5 |
| 20260901130849 | 21 | 236 | 8.0 | 22.5 | 0.00 | 0.00 | 0.00 | 68 | 1017.5 |
| 20260901130332 | 21 | 280 | 6.4 | 22.5 | 0.00 | 0.00 | 0.00 | 68 | 1017.5 |
| 20260901125813 | 21 | 274 | 11.3 | 25.7 | 0.00 | 0.00 | 0.00 | 67 | 1017.5 |
| 20260901125315 | 21 | 276 | 9.7 | 25.7 | 0.00 | 0.00 | 0.00 | 67 | 1017.5 |
| 20260901124819 | 21 | 277 | 12.9 | 25.7 | 0.00 | 0.00 | 0.00 | 68 | 1017.5 |
| 20260901124342 | 21 | 245 | 6.4 | 24.1 | 0.00 | 0.00 | 0.00 | 70 | 1017.5 |
| 20260901123843 | 21 | 231 | 9.7 | 24.1 | 0.00 | 0.00 | 0.00 | 72 | 1017.6 |
| 20260901123326 | 21 | 277 | 6.4 | 17.7 | 0.00 | 0.00 | 0.00 | 73 | 1017.7 |
| 20260901122849 | 20 | 274 | 6.4 | 17.7 | 0.00 | 0.00 | 0.00 | 73 | 1017.8 |
| 20260901122328 | 20 | 264 | 6.4 | 27.4 | 0.00 | 0.00 | 0.00 | 74 | 1017.8 |
| 20260901121844 | 20 | 214 | 12.9 | 27.4 | 0.00 | 0.00 | 0.00 | 74 | 1017.8 |
| 20260901121324 | 20 | 271 | 14.5 | 27.4 | 0.00 | 0.00 | 0.00 | 73 | 1017.9 |
| 20260901120823 | 20 | 272 | 11.3 | 22.5 | 0.00 | 0.00 | 0.00 | 71 | 1017.7 |
| 20260901120324 | 21 | 242 | 8.0 | 22.5 | 0.00 | 0.00 | 0.00 | 68 | 1017.7 |
| 20260901115827 | 21 | 244 | 4.8 | 12.9 | 0.00 | 0.00 | 0.00 | 68 | 1017.6 |
| 20260901115330 | 21 | 272 | 6.4 | 12.9 | 0.00 | 0.00 | 0.00 | 67 | 1017.6 |
| 20260901114853 | 21 | 267 | 4.8 | 14.5 | 0.00 | 0.00 | 0.00 | 67 | 1017.6 |
| 20260901114331 | 21 | 271 | 6.4 | 20.9 | 0.00 | 0.00 | 0.00 | 67 | 1017.7 |
| 20260901113834 | 21 | 282 | 11.3 | 20.9 | 0.00 | 0.00 | 0.00 | 66 | 1017.7 |
| 20260901113316 | 21 | 266 | 8.0 | 20.9 | 0.00 | 0.00 | 0.00 | 67 | 1017.7 |
| 20260901112816 | 21 | 322 | 9.7 | 20.9 | 0.00 | 0.00 | 0.00 | 65 | 1017.6 |
| 20260901112338 | 21 | 283 | 11.3 | 19.3 | 0.00 | 0.00 | 0.00 | 65 | 1017.6 |
| 20260901111821 | 21 | 266 | 9.7 | 22.5 | 0.00 | 0.00 | 0.00 | 66 | 1017.6 |
| 20260901111323 | 21 | 175 | 12.9 | 24.1 | 0.00 | 0.00 | 0.00 | 65 | 1017.6 |
| 20260901110825 | 21 | 218 | 11.3 | 24.1 | 0.00 | 0.00 | 0.00 | 66 | 1017.7 |
| 20260901110329 | 21 | 319 | 11.3 | 24.1 | 0.00 | 0.00 | 0.00 | 65 | 1017.6 |
| 20260901105831 | 21 | 272 | 12.9 | 24.1 | 0.00 | 0.00 | 0.00 | 66 | 1017.6 |
| 20260901105335 | 21 | 267 | 8.0 | 32.2 | 0.00 | 0.00 | 0.00 | 67 | 1017.6 |
| 20260901104814 | 21 | 218 | 14.5 | 32.2 | 0.00 | 0.00 | 0.00 | 68 | 1017.6 |
| 20260901104337 | 21 | 226 | 17.7 | 30.6 | 0.00 | 0.00 | 0.00 | 68 | 1017.6 |
| 20260901103817 | 21 | 284 | 11.3 | 35.4 | 0.00 | 0.00 | 0.00 | 67 | 1017.6 |
| 20260901103318 | 21 | 295 | 16.1 | 35.4 | 0.00 | 0.00 | 0.00 | 67 | 1017.6 |
| 20260901102820 | 21 | 277 | 11.3 | 24.1 | 0.00 | 0.00 | 0.00 | 68 | 1017.6 |
| 20260901102319 | 21 | 273 | 9.7 | 35.4 | 0.00 | 0.00 | 0.00 | 67 | 1017.6 |
| 20260901101820 | 20 | 262 | 12.9 | 35.4 | 0.00 | 0.00 | 0.00 | 68 | 1017.5 |
| 20260901101321 | 20 | 240 | 17.7 | 25.7 | 0.00 | 0.00 | 0.00 | 67 | 1017.5 |
| 20260901100821 | 20 | 231 | 12.9 | 20.9 | 0.00 | 0.00 | 0.00 | 69 | 1017.5 |
| 20260901100323 | 20 | 197 | 8.0 | 24.1 | 0.00 | 0.00 | 0.00 | 70 | 1017.6 |
| 20260901095826 | 20 | 311 | 9.7 | 27.4 | 0.00 | 0.00 | 0.00 | 69 | 1017.5 |
| 20260901095330 | 20 | 281 | 11.3 | 27.4 | 0.00 | 0.00 | 0.00 | 70 | 1017.6 |
| 20260901094812 | 20 | 296 | 12.9 | 30.6 | 0.00 | 0.00 | 0.00 | 70 | 1017.4 |
| 20260901094314 | 20 | 265 | 11.3 | 33.8 | 0.00 | 0.00 | 0.00 | 70 | 1017.4 |
| 20260901093814 | 20 | 268 | 22.5 | 33.8 | 0.00 | 0.00 | 0.00 | 68 | 1017.4 |
| 20260901093333 | 20 | 259 | 11.3 | 35.4 | 0.00 | 0.00 | 0.00 | 70 | 1017.3 |
| 20260901092813 | 20 | 293 | 14.5 | 41.8 | 0.00 | 0.00 | 0.00 | 69 | 1017.4 |
| 20260901092312 | 20 | 249 | 17.7 | 41.8 | 0.00 | 0.00 | 0.00 | 69 | 1017.2 |
| 20260901091832 | 20 | 284 | 16.1 | 30.6 | 0.00 | 0.00 | 0.00 | 69 | 1017.2 |
| 20260901091332 | 19 | 271 | 17.7 | 32.2 | 0.00 | 0.00 | 0.00 | 71 | 1017.3 |
| 20260901090813 | 19 | 281 | 14.5 | 33.8 | 0.00 | 0.00 | 0.00 | 72 | 1017.2 |
| 20260901090316 | 18 | 290 | 19.3 | 33.8 | 0.00 | 0.00 | 0.00 | 72 | 1017.2 |
| 20260901085818 | 18 | 269 | 11.3 | 19.3 | 0.00 | 0.00 | 0.00 | 74 | 1017.2 |
| 20260901085320 | 18 | 243 | 4.8 | 22.5 | 0.00 | 0.00 | 0.00 | 76 | 1017.1 |
| 20260901084823 | 18 | 262 | 8.0 | 22.5 | 0.00 | 0.00 | 0.00 | 76 | 1017.1 |
| 20260901084345 | 18 | 252 | 8.0 | 24.1 | 0.00 | 0.00 | 0.00 | 77 | 1017.1 |
| 20260901083825 | 18 | 271 | 14.5 | 24.1 | 0.00 | 0.00 | 0.00 | 77 | 1017.1 |
| 20260901083327 | 18 | 293 | 11.3 | 27.4 | 0.00 | 0.00 | 0.00 | 79 | 1017.1 |
| 20260901082831 | 18 | 278 | 11.3 | 20.9 | 0.00 | 0.00 | 0.00 | 79 | 1017.1 |
| 20260901082312 | 17 | 268 | 4.8 | 16.1 | 0.00 | 0.00 | 0.00 | 80 | 1017.1 |
| 20260901081843 | 17 | 267 | 6.4 | 25.7 | 0.00 | 0.00 | 0.00 | 80 | 1017.0 |
| 20260901081325 | 17 | 267 | 14.5 | 25.7 | 0.00 | 0.00 | 0.00 | 80 | 1017.0 |
| 20260901080826 | 17 | 276 | 9.7 | 20.9 | 0.00 | 0.00 | 0.00 | 80 | 1017.0 |
| 20260901080327 | 17 | 255 | 8.0 | 20.9 | 0.00 | 0.00 | 0.00 | 81 | 1016.9 |
| 20260901075826 | 17 | 263 | 8.0 | 20.9 | 0.00 | 0.00 | 0.00 | 81 | 1016.9 |
| 20260901075326 | 17 | 229 | 12.9 | 20.9 | 0.00 | 0.00 | 0.00 | 81 | 1016.8 |
| 20260901074828 | 17 | 262 | 8.0 | 20.9 | 0.00 | 0.00 | 0.00 | 82 | 1016.8 |
| 20260901074329 | 17 | 257 | 8.0 | 17.7 | 0.00 | 0.00 | 0.00 | 82 | 1016.8 |
| 20260901073829 | 17 | 275 | 8.0 | 20.9 | 0.00 | 0.00 | 0.00 | 82 | 1016.8 |
| 20260901073330 | 17 | 266 | 11.3 | 20.9 | 0.00 | 0.00 | 0.00 | 82 | 1016.7 |
| 20260901072831 | 16 | 274 | 12.9 | 20.9 | 0.00 | 0.00 | 0.00 | 83 | 1016.7 |
| 20260901072332 | 16 | 255 | 8.0 | 20.9 | 0.00 | 0.00 | 0.00 | 83 | 1016.6 |
| 20260901071813 | 16 | 276 | 9.7 | 20.9 | 0.00 | 0.00 | 0.00 | 84 | 1016.5 |
| 20260901071316 | 16 | 274 | 11.3 | 20.9 | 0.00 | 0.00 | 0.00 | 84 | 1016.5 |
| 20260901070820 | 16 | 233 | 11.3 | 22.5 | 0.00 | 0.00 | 0.00 | 84 | 1016.4 |
| 20260901070323 | 16 | 241 | 6.4 | 24.1 | 0.00 | 0.00 | 0.00 | 84 | 1016.4 |
| 20260901065825 | 16 | 238 | 11.3 | 24.1 | 0.00 | 0.00 | 0.00 | 84 | 1016.4 |